QPF
0.01 0.00 0.00 0.00 0.01 0.00 0.00 0.00 0.00 0.00 0.00 0.00 0.00 0.00 0.00 0.00 0.00 0.00 0.00 0.00 0.00 0.00 0.00 0.00 0.00 0.00 0.00 0.00 0.00 0.01 0.01 0.01 0.01 0.01 0.02 0.02 0.02 0.01 0.01 0.02 0.03 0.03 0.04
0.01 0.01 0.00 0.01 0.01 0.00 0.00 0.00 0.00 0.00 0.00 0.00 0.00 0.00 0.00 0.00 0.00 0.00 0.00 0.00 0.00 0.00 0.00 0.00 0.00 0.00 0.00 0.00 0.01 0.01 0.01 0.00 0.01 0.01 0.02 0.02 0.03 0.02 0.01 0.02 0.03 0.02 0.03
0.00 0.00 0.00 0.01 0.00 0.00 0.00 0.00 0.00 0.00 0.00 0.00 0.00 0.00 0.00 0.00 0.00 0.00 0.00 0.00 0.00 0.00 0.00 0.00 0.00 0.00 0.00 0.00 0.00 0.01 0.01 0.01 0.00 0.00 0.01 0.02 0.03 0.03 0.02 0.02 0.03 0.03 0.03
0.00 0.00 0.01 0.01 0.00 0.00 0.00 0.00 0.00 0.00 0.00 0.00 0.00 0.00 0.00 0.00 0.00 0.00 0.00 0.00 0.00 0.00 0.00 0.00 0.00 0.00 0.00 0.00 0.00 0.00 0.00 0.01 0.01 0.00 0.00 0.01 0.01 0.02 0.02 0.02 0.02 0.02 0.02
0.01 0.01 0.01 0.01 0.00 0.00 0.00 0.00 0.00 0.00 0.00 0.00 0.00 0.00 0.00 0.00 0.00 0.00 0.00 0.00 0.00 0.00 0.00 0.00 0.00 0.00 0.00 0.00 0.00 0.00 0.00 0.00 0.01 0.00 0.00 0.00 0.00 0.00 0.01 0.01 0.01 0.01 0.01
0.01 0.01 0.01 0.01 0.00 0.00 0.00 0.00 0.00 0.00 0.00 0.00 0.00 0.00 0.00 0.00 0.00 0.00 0.00 0.00 0.00 0.00 0.00 0.00 0.00 0.00 0.00 0.00 0.00 0.00 0.00 0.00 0.00 0.00 0.00 0.00 0.00 0.00 0.00 0.01 0.01 0.01 0.01
0.00 0.01 0.01 0.01 0.00 0.00 0.00 0.00 0.00 0.00 0.00 0.00 0.00 0.00 0.00 0.00 0.00 0.00 0.00 0.00 0.00 0.00 0.00 0.00 0.00 0.00 0.00 0.00 0.00 0.00 0.00 0.00 0.00 0.00 0.00 0.00 0.00 0.00 0.00 0.00 0.00 0.01 0.01
0.00 0.00 0.00 0.00 0.00 0.00 0.00 0.00 0.00 0.00 0.00 0.00 0.00 0.00 0.00 0.00 0.00 0.00 0.00 0.00 0.00 0.00 0.00 0.00 0.00 0.00 0.00 0.00 0.00 0.00 0.00 0.00 0.00 0.00 0.00 0.00 0.00 0.00 0.00 0.01 0.01 0.01 0.00
0.00 0.00 0.00 0.00 0.00 0.00 0.00 0.00 0.00 0.00 0.00 0.00 0.00 0.00 0.00 0.00 0.00 0.00 0.00 0.00 0.00 0.00 0.00 0.00 0.00 0.00 0.00 0.00 0.00 0.00 0.00 0.01 0.01 0.01 0.00 0.00 0.00 0.00 0.00 0.01 0.01 0.01 0.01
0.00 0.00 0.00 0.00 0.00 0.00 0.00 0.00 0.00 0.00 0.00 0.00 0.00 0.00 0.00 0.00 0.00 0.00 0.00 0.00 0.00 0.00 0.00 0.00 0.00 0.00 0.00 0.00 0.00 0.00 0.00 0.01 0.01 0.01 0.00 0.00 0.00 0.00 0.01 0.01 0.01 0.01 0.01
0.00 0.00 0.00 0.00 0.00 0.00 0.00 0.00 0.00 0.00 0.00 0.00 0.00 0.00 0.00 0.00 0.00 0.00 0.00 0.00 0.00 0.00 0.00 0.00 0.00 0.00 0.00 0.00 0.00 0.00 0.00 0.01 0.01 0.01 0.00 0.00 0.00 0.01 0.01 0.00 0.00 0.01 0.01
0.00 0.00 0.00 0.00 0.00 0.00 0.00 0.00 0.00 0.00 0.00 0.00 0.00 0.00 0.00 0.00 0.00 0.00 0.00 0.00 0.00 0.00 0.00 0.00 0.00 0.00 0.00 0.00 0.00 0.00 0.00 0.01 0.01 0.00 0.00 0.00 0.00 0.00 0.00 0.00 0.00 0.00 0.00
0.00 0.00 0.00 0.00 0.00 0.00 0.00 0.00 0.00 0.00 0.00 0.00 0.00 0.00 0.00 0.00 0.00 0.00 0.00 0.00 0.00 0.00 0.00 0.00 0.00 0.00 0.00 0.00 0.00 0.00 0.00 0.01 0.01 0.00 0.00 0.00 0.00 0.00 0.00 0.00 0.00 0.00 0.00
0.00 0.00 0.00 0.00 0.00 0.00 0.00 0.00 0.00 0.00 0.00 0.00 0.00 0.00 0.00 0.00 0.00 0.00 0.00 0.00 0.00 0.00 0.00 0.00 0.00 0.00 0.00 0.00 0.00 0.01 0.00 0.01 0.01 0.00 0.00 0.00 0.00 0.00 0.00 0.00 0.00 0.00 0.00
0.00 0.00 0.00 0.00 0.00 0.00 0.00 0.00 0.00 0.00 0.00 0.00 0.00 0.00 0.00 0.00 0.00 0.00 0.00 0.00 0.00 0.00 0.00 0.00 0.00 0.00 0.00 0.00 0.01 0.00 0.00 0.00 0.00 0.00 0.00 0.00 0.00 0.00 0.00 0.00 0.00 0.00 0.01
0.00 0.00 0.00 0.00 0.00 0.00 0.00 0.00 0.00 0.00 0.00 0.00 0.00 0.00 0.00 0.00 0.00 0.00 0.00 0.00 0.00 0.00 0.00 0.00 0.00 0.00 0.00 0.00 0.00 0.00 0.00 0.00 0.00 0.00 0.00 0.00 0.00 0.00 0.00 0.00 0.00 0.00 0.00
0.00 0.00 0.00 0.00 0.00 0.00 0.00 0.00 0.00 0.00 0.00 0.00 0.00 0.00 0.00 0.00 0.00 0.00 0.00 0.00 0.00 0.00 0.00 0.00 0.00 0.00 0.00 0.00 0.00 0.00 0.00 0.00 0.00 0.00 0.00 0.00 0.00 0.00 0.00 0.00 0.00 0.00 0.00
0.00 0.00 0.00 0.00 0.00 0.00 0.00 0.00 0.00 0.00 0.00 0.00 0.00 0.00 0.00 0.00 0.00 0.00 0.00 0.00 0.00 0.00 0.00 0.00 0.00 0.00 0.00 0.00 0.00 0.00 0.00 0.00 0.00 0.00 0.00 0.00 0.00 0.00 0.00 0.00 0.00 0.00 0.01
0.00 0.00 0.00 0.00 0.00 0.00 0.00 0.00 0.00 0.00 0.00 0.00 0.00 0.00 0.00 0.00 0.00 0.00 0.00 0.00 0.00 0.00 0.00 0.00 0.00 0.00 0.00 0.00 0.00 0.00 0.00 0.00 0.00 0.00 0.00 0.00 0.00 0.00 0.00 0.00 0.00 0.00 0.00
0.00 0.00 0.00 0.00 0.00 0.00 0.00 0.00 0.00 0.00 0.00 0.00 0.00 0.00 0.00 0.00 0.00 0.00 0.00 0.00 0.00 0.00 0.00 0.00 0.00 0.00 0.00 0.00 0.00 0.00 0.00 0.00 0.00 0.00 0.00 0.00 0.00 0.00 0.00 0.00 0.00 0.00 0.01
0.00 0.00 0.00 0.00 0.00 0.00 0.00 0.00 0.00 0.00 0.00 0.00 0.00 0.00 0.00 0.00 0.00 0.00 0.00 0.00 0.00 0.00 0.00 0.00 0.00 0.00 0.00 0.00 0.00 0.00 0.00 0.00 0.00 0.00 0.00 0.00 0.00 0.00 0.00 0.00 0.00 0.01 0.01
0.00 0.00 0.00 0.00 0.00 0.00 0.00 0.00 0.00 0.00 0.00 0.00 0.00 0.00 0.00 0.00 0.00 0.00 0.00 0.00 0.00 0.00 0.00 0.00 0.00 0.00 0.00 0.00 0.00 0.00 0.00 0.00 0.00 0.00 0.00 0.00 0.00 0.00 0.00 0.00 0.00 0.01 0.01
0.00 0.00 0.00 0.00 0.00 0.00 0.00 0.00 0.00 0.00 0.00 0.00 0.00 0.00 0.00 0.00 0.00 0.00 0.00 0.00 0.00 0.00 0.00 0.00 0.00 0.00 0.00 0.00 0.00 0.00 0.00 0.00 0.00 0.00 0.00 0.00 0.00 0.00 0.00 0.00 0.00 0.00 0.00
0.00 0.00 0.00 0.00 0.00 0.00 0.00 0.00 0.00 0.00 0.00 0.00 0.00 0.00 0.00 0.00 0.00 0.00 0.00 0.00 0.00 0.00 0.00 0.00 0.00 0.00 0.00 0.00 0.00 0.00 0.00 0.00 0.00 0.00 0.00 0.00 0.00 0.00 0.00 0.00 0.01 0.00 0.01
0.00 0.00 0.00 0.00 0.00 0.00 0.00 0.00 0.00 0.00 0.00 0.00 0.00 0.00 0.00 0.00 0.00 0.00 0.00 0.00 0.00 0.00 0.00 0.00 0.00 0.00 0.00 0.00 0.00 0.00 0.00 0.00 0.00 0.00 0.00 0.00 0.00 0.00 0.00 0.01 0.02 0.01 0.01
0.00 0.00 0.00 0.00 0.00 0.00 0.00 0.00 0.00 0.00 0.00 0.00 0.00 0.00 0.00 0.00 0.00 0.00 0.00 0.00 0.00 0.00 0.00 0.00 0.00 0.00 0.00 0.00 0.00 0.00 0.00 0.00 0.00 0.00 0.00 0.00 0.00 0.00 0.01 0.01 0.01 0.01 0.01
MSLP
1018.36 1018.65 1018.97 1019.27 1019.51 1019.67 1019.75 1019.78 1019.77 1019.76 1019.78 1019.83 1019.92 1020.02 1020.13 1020.20 1020.22 1020.19 1020.11 1019.97 1019.82 1019.67 1019.54 1019.45 1019.39 1019.35 1019.32 1019.28 1019.21 1019.10 1018.94 1018.75 1018.54 1018.32 1018.11 1017.92 1017.74 1017.59 1017.44 1017.29 1017.14 1016.99 1016.84
1018.34 1018.64 1018.97 1019.28 1019.53 1019.70 1019.79 1019.84 1019.85 1019.87 1019.92 1019.99 1020.10 1020.21 1020.31 1020.38 1020.39 1020.34 1020.24 1020.12 1019.98 1019.85 1019.75 1019.70 1019.67 1019.67 1019.67 1019.66 1019.61 1019.52 1019.39 1019.22 1019.03 1018.83 1018.64 1018.46 1018.28 1018.11 1017.93 1017.75 1017.56 1017.38 1017.20
1018.20 1018.51 1018.84 1019.15 1019.40 1019.58 1019.69 1019.77 1019.82 1019.89 1019.98 1020.10 1020.23 1020.36 1020.46 1020.52 1020.52 1020.46 1020.36 1020.24 1020.12 1020.02 1019.97 1019.95 1019.96 1019.98 1020.00 1020.00 1019.96 1019.88 1019.77 1019.62 1019.47 1019.31 1019.16 1019.00 1018.85 1018.69 1018.50 1018.30 1018.09 1017.87 1017.66
1017.95 1018.26 1018.59 1018.89 1019.14 1019.34 1019.48 1019.60 1019.71 1019.84 1019.99 1020.16 1020.33 1020.48 1020.59 1020.65 1020.64 1020.58 1020.48 1020.38 1020.28 1020.22 1020.20 1020.21 1020.25 1020.29 1020.32 1020.32 1020.28 1020.21 1020.11 1019.99 1019.88 1019.77 1019.66 1019.56 1019.45 1019.31 1019.14 1018.93 1018.69 1018.45 1018.21
1017.61 1017.92 1018.26 1018.56 1018.83 1019.04 1019.22 1019.39 1019.57 1019.76 1019.98 1020.21 1020.42 1020.60 1020.73 1020.78 1020.78 1020.72 1020.64 1020.55 1020.49 1020.46 1020.47 1020.51 1020.57 1020.62 1020.65 1020.64 1020.60 1020.53 1020.44 1020.35 1020.28 1020.22 1020.17 1020.12 1020.05 1019.94 1019.79 1019.58 1019.33 1019.06 1018.79
1017.23 1017.57 1017.92 1018.24 1018.52 1018.76 1018.98 1019.19 1019.43 1019.69 1019.97 1020.26 1020.52 1020.73 1020.88 1020.95 1020.96 1020.91 1020.85 1020.79 1020.75 1020.75 1020.79 1020.85 1020.91 1020.96 1020.98 1020.97 1020.92 1020.85 1020.77 1020.71 1020.67 1020.66 1020.65 1020.65 1020.62 1020.55 1020.41 1020.21 1019.94 1019.65 1019.35
1016.88 1017.27 1017.64 1017.98 1018.28 1018.54 1018.79 1019.06 1019.34 1019.66 1020.00 1020.33 1020.64 1020.88 1021.06 1021.15 1021.18 1021.16 1021.11 1021.07 1021.06 1021.08 1021.14 1021.21 1021.27 1021.32 1021.34 1021.31 1021.26 1021.19 1021.12 1021.08 1021.06 1021.08 1021.11 1021.14 1021.14 1021.08 1020.96 1020.75 1020.48 1020.17 1019.84
1016.61 1017.06 1017.47 1017.83 1018.15 1018.43 1018.71 1019.00 1019.33 1019.69 1020.07 1020.45 1020.79 1021.07 1021.27 1021.39 1021.44 1021.45 1021.43 1021.41 1021.41 1021.45 1021.51 1021.58 1021.65 1021.69 1021.70 1021.67 1021.61 1021.55 1021.49 1021.46 1021.46 1021.49 1021.53 1021.57 1021.58 1021.53 1021.41 1021.21 1020.93 1020.61 1020.26
1016.46 1016.96 1017.41 1017.80 1018.13 1018.43 1018.73 1019.04 1019.40 1019.78 1020.19 1020.60 1020.97 1021.28 1021.51 1021.66 1021.74 1021.77 1021.78 1021.78 1021.80 1021.84 1021.91 1021.98 1022.04 1022.07 1022.08 1022.05 1021.99 1021.93 1021.88 1021.85 1021.86 1021.89 1021.93 1021.96 1021.96 1021.91 1021.78 1021.58 1021.31 1020.99 1020.64
1016.40 1016.95 1017.44 1017.85 1018.20 1018.51 1018.82 1019.15 1019.52 1019.93 1020.35 1020.78 1021.17 1021.51 1021.77 1021.95 1022.06 1022.12 1022.15 1022.17 1022.20 1022.25 1022.31 1022.37 1022.43 1022.46 1022.47 1022.45 1022.40 1022.35 1022.31 1022.28 1022.28 1022.30 1022.32 1022.33 1022.31 1022.25 1022.11 1021.91 1021.65 1021.35 1021.02
1016.37 1016.97 1017.49 1017.92 1018.29 1018.62 1018.94 1019.29 1019.67 1020.09 1020.53 1020.97 1021.39 1021.74 1022.03 1022.25 1022.39 1022.48 1022.53 1022.57 1022.61 1022.66 1022.72 1022.78 1022.83 1022.87 1022.88 1022.87 1022.85 1022.81 1022.77 1022.75 1022.73 1022.73 1022.73 1022.71 1022.67 1022.58 1022.45 1022.26 1022.02 1021.75 1021.45
1016.30 1016.93 1017.47 1017.92 1018.32 1018.68 1019.03 1019.40 1019.81 1020.25 1020.70 1021.16 1021.59 1021.97 1022.28 1022.53 1022.70 1022.82 1022.89 1022.95 1023.00 1023.06 1023.12 1023.18 1023.24 1023.28 1023.31 1023.32 1023.31 1023.29 1023.26 1023.23 1023.21 1023.18 1023.15 1023.11 1023.04 1022.94 1022.81 1022.64 1022.44 1022.21 1021.96
1016.09 1016.73 1017.30 1017.79 1018.22 1018.63 1019.03 1019.45 1019.89 1020.36 1020.84 1021.32 1021.76 1022.16 1022.50 1022.77 1022.97 1023.12 1023.22 1023.30 1023.37 1023.43 1023.50 1023.57 1023.63 1023.69 1023.73 1023.75 1023.76 1023.76 1023.74 1023.71 1023.67 1023.63 1023.58 1023.51 1023.43 1023.33 1023.20 1023.06 1022.90 1022.72 1022.51
1015.68 1016.33 1016.92 1017.46 1017.95 1018.43 1018.90 1019.39 1019.89 1020.40 1020.92 1021.42 1021.89 1022.31 1022.67 1022.96 1023.19 1023.36 1023.49 1023.60 1023.68 1023.76 1023.84 1023.92 1023.99 1024.05 1024.11 1024.14 1024.17 1024.17 1024.16 1024.13 1024.09 1024.03 1023.96 1023.88 1023.79 1023.69 1023.58 1023.46 1023.34 1023.20 1023.03
1015.03 1015.69 1016.32 1016.91 1017.49 1018.06 1018.63 1019.20 1019.78 1020.35 1020.91 1021.44 1021.94 1022.37 1022.75 1023.07 1023.32 1023.52 1023.68 1023.81 1023.92 1024.02 1024.11 1024.19 1024.27 1024.34 1024.40 1024.44 1024.47 1024.48 1024.47 1024.44 1024.39 1024.33 1024.25 1024.17 1024.07 1023.98 1023.88 1023.79 1023.68 1023.57 1023.43
1014.18 1014.85 1015.52 1016.19 1016.86 1017.53 1018.21 1018.88 1019.54 1020.19 1020.80 1021.37 1021.88 1022.34 1022.74 1023.07 1023.35 1023.58 1023.76 1023.92 1024.06 1024.17 1024.28 1024.37 1024.45 1024.52 1024.57 1024.61 1024.63 1024.64 1024.62 1024.59 1024.54 1024.48 1024.40 1024.32 1024.23 1024.14 1024.06 1023.97 1023.87 1023.76 1023.63
1013.19 1013.87 1014.59 1015.34 1016.10 1016.88 1017.67 1018.44 1019.19 1019.90 1020.57 1021.17 1021.71 1022.19 1022.61 1022.96 1023.26 1023.52 1023.73 1023.92 1024.08 1024.22 1024.33 1024.43 1024.51 1024.57 1024.61 1024.63 1024.64 1024.63 1024.60 1024.57 1024.52 1024.46 1024.39 1024.31 1024.23 1024.15 1024.07 1023.97 1023.86 1023.74 1023.58
1012.18 1012.87 1013.63 1014.44 1015.29 1016.16 1017.04 1017.90 1018.72 1019.49 1020.20 1020.84 1021.41 1021.91 1022.34 1022.72 1023.05 1023.33 1023.58 1023.80 1023.99 1024.15 1024.27 1024.37 1024.44 1024.48 1024.50 1024.50 1024.49 1024.46 1024.42 1024.38 1024.34 1024.28 1024.23 1024.16 1024.09 1024.01 1023.91 1023.80 1023.66 1023.49 1023.29
1011.24 1011.94 1012.73 1013.58 1014.48 1015.42 1016.36 1017.28 1018.16 1018.97 1019.71 1020.38 1020.97 1021.49 1021.95 1022.36 1022.72 1023.04 1023.32 1023.57 1023.79 1023.97 1024.10 1024.20 1024.26 1024.28 1024.28 1024.26 1024.22 1024.18 1024.13 1024.09 1024.05 1024.01 1023.96 1023.91 1023.85 1023.76 1023.64 1023.50 1023.31 1023.09 1022.83
1010.48 1011.17 1011.95 1012.82 1013.74 1014.70 1015.66 1016.61 1017.51 1018.35 1019.11 1019.79 1020.41 1020.95 1021.44 1021.88 1022.28 1022.64 1022.96 1023.25 1023.50 1023.70 1023.84 1023.94 1024.00 1024.01 1023.99 1023.95 1023.90 1023.84 1023.79 1023.75 1023.72 1023.69 1023.65 1023.61 1023.54 1023.44 1023.30 1023.11 1022.88 1022.60 1022.28
1009.93 1010.59 1011.35 1012.18 1013.09 1014.02 1014.97 1015.91 1016.80 1017.63 1018.40 1019.10 1019.73 1020.31 1020.83 1021.31 1021.75 1022.15 1022.52 1022.85 1023.13 1023.35 1023.52 1023.62 1023.68 1023.69 1023.66 1023.61 1023.55 1023.50 1023.45 1023.41 1023.38 1023.36 1023.33 1023.29 1023.21 1023.09 1022.92 1022.69 1022.40 1022.07 1021.69
1009.58 1010.19 1010.89 1011.67 1012.51 1013.39 1014.29 1015.18 1016.03 1016.85 1017.61 1018.32 1018.97 1019.57 1020.13 1020.66 1021.14 1021.59 1022.01 1022.37 1022.68 1022.93 1023.12 1023.25 1023.31 1023.33 1023.31 1023.27 1023.22 1023.17 1023.12 1023.09 1023.07 1023.05 1023.02 1022.96 1022.86 1022.71 1022.50 1022.23 1021.90 1021.51 1021.09
1009.37 1009.92 1010.54 1011.24 1011.99 1012.79 1013.60 1014.42 1015.23 1016.01 1016.76 1017.47 1018.14 1018.77 1019.37 1019.94 1020.47 1020.96 1021.42 1021.82 1022.16 1022.44 1022.66 1022.81 1022.90 1022.93 1022.94 1022.91 1022.88 1022.84 1022.81 1022.78 1022.75 1022.72 1022.67 1022.59 1022.46 1022.27 1022.02 1021.70 1021.32 1020.90 1020.46
1009.22 1009.69 1010.23 1010.83 1011.48 1012.18 1012.90 1013.65 1014.39 1015.14 1015.87 1016.58 1017.26 1017.93 1018.56 1019.16 1019.73 1020.26 1020.75 1021.18 1021.56 1021.86 1022.11 1022.29 1022.41 1022.48 1022.51 1022.52 1022.50 1022.48 1022.45 1022.42 1022.38 1022.33 1022.24 1022.12 1021.94 1021.70 1021.40 1021.04 1020.64 1020.20 1019.74
1009.04 1009.44 1009.89 1010.39 1010.94 1011.54 1012.17 1012.84 1013.54 1014.24 1014.96 1015.67 1016.37 1017.05 1017.71 1018.34 1018.94 1019.49 1020.00 1020.45 1020.85 1021.18 1021.46 1021.67 1021.83 1021.93 1022.00 1022.04 1022.05 1022.04 1022.01 1021.97 1021.90 1021.80 1021.67 1021.48 1021.25 1020.96 1020.61 1020.21 1019.79 1019.34 1018.89
1008.77 1009.10 1009.46 1009.87 1010.33 1010.85 1011.41 1012.02 1012.66 1013.34 1014.04 1014.75 1015.46 1016.15 1016.83 1017.47 1018.08 1018.65 1019.16 1019.63 1020.04 1020.39 1020.69 1020.94 1021.13 1021.27 1021.38 1021.44 1021.47 1021.47 1021.43 1021.36 1021.25 1021.10 1020.90 1020.65 1020.36 1020.01 1019.62 1019.20 1018.76 1018.32 1017.89
Thickness
5753 5753 5751 5751 5750 5749 5748 5745 5742 5740 5738 5736 5734 5731 5729 5728 5725 5722 5720 5718 5718 5717 5716 5716 5714 5713 5712 5711 5711 5709 5708 5708 5709 5709 5708 5710 5711 5712 5711 5714 5716 5718 5718
5749 5748 5748 5748 5748 5747 5746 5744 5742 5740 5738 5734 5734 5731 5728 5727 5724 5721 5719 5718 5717 5716 5716 5715 5715 5713 5710 5709 5708 5706 5706 5706 5707 5706 5705 5703 5704 5706 5710 5711 5712 5715 5716
5748 5747 5746 5746 5746 5745 5744 5743 5741 5738 5736 5734 5732 5729 5727 5726 5724 5721 5719 5717 5716 5715 5714 5713 5713 5712 5712 5709 5707 5706 5703 5703 5705 5706 5704 5700 5696 5700 5705 5708 5710 5711 5713
5748 5746 5745 5744 5744 5743 5743 5743 5740 5738 5735 5733 5732 5730 5726 5724 5723 5722 5720 5718 5716 5714 5713 5712 5712 5711 5710 5708 5707 5705 5704 5702 5702 5703 5702 5702 5700 5699 5698 5704 5707 5709 5710
5747 5745 5745 5744 5744 5743 5741 5740 5738 5736 5734 5733 5730 5728 5727 5725 5724 5722 5719 5719 5716 5714 5712 5711 5711 5710 5708 5706 5705 5703 5703 5702 5700 5700 5700 5700 5700 5704 5700 5697 5701 5706 5708
5746 5745 5744 5742 5741 5740 5738 5737 5735 5732 5731 5730 5729 5728 5725 5723 5721 5719 5718 5718 5717 5714 5712 5710 5709 5708 5706 5705 5703 5702 5700 5700 5699 5700 5699 5698 5697 5697 5698 5698 5699 5701 5704
5746 5744 5741 5739 5738 5737 5736 5735 5733 5731 5730 5729 5728 5726 5724 5723 5721 5719 5717 5717 5716 5714 5711 5710 5708 5706 5704 5702 5701 5700 5700 5699 5697 5697 5697 5697 5697 5697 5697 5698 5699 5699 5703
5746 5743 5742 5740 5738 5736 5735 5734 5733 5731 5729 5728 5727 5726 5724 5722 5721 5718 5718 5717 5715 5713 5710 5708 5706 5704 5702 5701 5699 5699 5698 5698 5697 5696 5695 5695 5696 5696 5696 5695 5695 5697 5700
5744 5742 5741 5740 5739 5737 5735 5734 5732 5731 5729 5728 5726 5725 5723 5721 5719 5718 5717 5715 5714 5711 5709 5707 5706 5703 5700 5699 5698 5697 5696 5695 5694 5694 5694 5694 5694 5694 5694 5695 5694 5692 5692
5743 5741 5740 5739 5739 5737 5736 5734 5733 5730 5728 5727 5725 5722 5721 5719 5717 5717 5715 5714 5712 5710 5708 5708 5706 5703 5700 5697 5695 5695 5692 5693 5691 5689 5690 5690 5692 5691 5691 5692 5692 5692 5690
5744 5741 5739 5739 5738 5736 5734 5732 5730 5728 5726 5725 5723 5720 5718 5717 5716 5714 5712 5711 5710 5708 5707 5705 5704 5702 5700 5697 5694 5693 5691 5691 5690 5690 5689 5687 5687 5688 5689 5689 5689 5689 5689
5745 5742 5739 5737 5735 5734 5733 5731 5729 5726 5724 5723 5721 5719 5716 5715 5714 5712 5710 5709 5707 5706 5705 5704 5702 5699 5697 5695 5693 5690 5688 5688 5686 5686 5685 5684 5683 5683 5684 5684 5685 5685 5685
5743 5740 5737 5736 5734 5732 5731 5729 5727 5725 5722 5720 5718 5717 5715 5713 5711 5709 5708 5706 5705 5703 5702 5701 5698 5696 5694 5692 5690 5689 5687 5686 5684 5682 5681 5681 5680 5679 5679 5679 5680 5680 5681
5742 5739 5736 5735 5733 5732 5730 5727 5725 5722 5720 5717 5716 5714 5712 5710 5708 5706 5704 5703 5701 5700 5698 5696 5694 5692 5690 5689 5687 5686 5684 5682 5680 5678 5676 5675 5674 5673 5674 5674 5674 5674 5674
5740 5739 5736 5735 5732 5730 5728 5726 5722 5720 5718 5715 5713 5711 5709 5707 5704 5701 5700 5698 5696 5695 5693 5691 5690 5688 5685 5683 5681 5681 5679 5678 5676 5674 5672 5669 5666 5664 5664 5665 5666 5666 5667
5741 5740 5738 5735 5733 5730 5728 5724 5720 5718 5716 5713 5710 5707 5705 5702 5699 5697 5695 5693 5691 5689 5687 5686 5684 5682 5679 5674 5672 5672 5673 5672 5671 5668 5667 5665 5662 5659 5657 5656 5655 5655 5657
5743 5741 5740 5737 5734 5733 5729 5723 5720 5716 5713 5711 5707 5703 5701 5697 5695 5693 5690 5687 5685 5683 5681 5680 5678 5676 5672 5667 5665 5663 5665 5665 5664 5662 5660 5658 5656 5653 5654 5653 5651 5650 5648
5744 5743 5741 5738 5735 5732 5727 5723 5718 5714 5711 5707 5703 5700 5697 5693 5690 5687 5684 5683 5682 5678 5675 5673 5672 5668 5665 5660 5658 5657 5659 5658 5656 5654 5652 5650 5649 5646 5643 5645 5645 5646 5644
5749 5746 5743 5739 5734 5730 5726 5720 5715 5711 5707 5703 5700 5696 5693 5689 5686 5682 5679 5677 5675 5672 5670 5668 5665 5662 5659 5654 5651 5649 5652 5651 5649 5647 5644 5641 5640 5635 5632 5634 5636 5636 5636
5748 5744 5740 5736 5731 5727 5722 5717 5712 5708 5704 5700 5697 5693 5690 5685 5681 5678 5675 5672 5669 5666 5664 5661 5658 5656 5653 5647 5644 5641 5645 5644 5642 5639 5636 5631 5628 5624 5622 5624 5626 5625 5625
5744 5740 5736 5732 5728 5724 5718 5713 5709 5706 5702 5697 5692 5688 5684 5680 5677 5673 5669 5666 5663 5660 5658 5655 5652 5649 5645 5641 5636 5633 5634 5633 5632 5630 5628 5624 5618 5615 5613 5612 5613 5612 5610
5738 5734 5730 5726 5723 5719 5714 5710 5705 5702 5696 5690 5686 5682 5678 5674 5670 5666 5663 5660 5656 5653 5651 5648 5646 5642 5639 5633 5629 5625 5622 5619 5620 5619 5617 5614 5608 5605 5603 5603 5601 5599 5597
5732 5729 5725 5720 5716 5714 5711 5706 5701 5696 5690 5684 5680 5676 5672 5668 5665 5660 5656 5653 5650 5647 5645 5642 5639 5636 5632 5627 5621 5616 5613 5609 5608 5608 5604 5600 5598 5596 5596 5594 5591 5589 5589
5727 5724 5720 5715 5711 5709 5705 5702 5697 5691 5685 5680 5675 5671 5667 5663 5659 5654 5651 5647 5644 5640 5637 5634 5631 5628 5624 5620 5616 5611 5607 5602 5600 5599 5596 5592 5590 5587 5585 5585 5584 5581 5578
5722 5719 5716 5712 5708 5704 5699 5696 5691 5686 5681 5676 5671 5666 5662 5658 5653 5649 5645 5641 5637 5634 5629 5626 5623 5619 5615 5610 5603 5599 5597 5594 5591 5587 5586 5585 5584 5582 5580 5577 5574 5569 5566
5717 5713 5710 5706 5703 5699 5694 5689 5685 5681 5676 5671 5666 5661 5656 5651 5646 5642 5637 5630 5627 5622 5617 5613 5610 5608 5603 5597 5592 5588 5584 5580 5576 5575 5576 5575 5573 5570 5567 5564 5561 5557 5552